North Bend, OR

11:06 AM PST on December 14, 2017 (GMT -0800)
North Bend Municipal

Weather History for KOTH - July, 2013

Change the Weather History Date:

Sunday, July 7, 2013

  Actual Average Record
Temperature  
Mean Temperature 64 °F 58 °F  
Max Temperature 70 °F 64 °F 84 °F (1952)
Min Temperature 57 °F 52 °F 40 °F (1924)
Degree Days  
Heating Degree Days 1 7  
Month to date heating degree days 3 49  
Since 1 June heating degree days 174 316  
Since 1 July heating degree days 3 49  
Cooling Degree Days 0 0  
Month to date cooling degree days 13 0  
Year to date cooling degree days 33 0  
Since 1 June cooling degree days 29 0  
Growing Degree Days 13 (Base 50)    
Moisture  
Dew Point 57 °F    
Average Humidity 83    
Maximum Humidity 93    
Minimum Humidity 73    
Precipitation  
Precipitation 0.00 in 0.02 in 0.41 in (1974)
Month to date precipitation 0.00 0.16  
Year to date precipitation 17.49 36.28  
Sea Level Pressure  
Sea Level Pressure 29.98 in    
Wind  
Wind Speed 17 mph (NNE)    
Max Wind Speed 27 mph    
Max Gust Speed 36 mph    
Visibility 10 miles    
Events      
T = Trace of Precipitation, MM = Missing Value Source: NWS Daily Summary

Daily Weather History Graph

Daily Weather History Graph

Search for Another Location

Airport or City:

Trip Planner

Search our weather history database for the weather conditions in past years. The results will help you decide how hot, cold, wet, or windy it might be!

Date:

Astronomy

Jul. 07, 2013 Rise Set
Actual Time 5:44 AM PDT 8:59 PM PDT
Civil Twilight 5:08 AM PDT 9:34 PM PDT
Nautical Twilight 4:23 AM PDT 10:20 PM PDT
Astronomical Twilight 3:27 AM PDT 11:15 PM PDT
Moon 5:27 AM PDT (7/7) 8:24 PM PDT (7/7)
Length of Visible Light 16h 25m
Length of Day
15h 15m
Waning Crescent, 0% of the Moon is Illuminated
Jul 7
Waning Crescent
Jul 8
New
Jul 15
First Quarter
Jul 22
Full
Jul 29
Last Quarter

Hourly Weather History & Observations

Time (PDT) Temp. Dew Point Humidity Pressure Visibility Wind Dir Wind Speed Gust Speed Precip Events Conditions
12:15 AM 59.0 °F 55.4 °F 88% 29.96 in 10.0 mi NNE 16.1 mph 20.7 mph N/A   Overcast
12:35 AM 59.0 °F 55.4 °F 88% 29.96 in 10.0 mi NNE 13.8 mph 21.9 mph N/A   Overcast
12:55 AM 59.0 °F 55.4 °F 88% 29.96 in 10.0 mi NE 13.8 mph 21.9 mph N/A   Overcast
1:15 AM 59.0 °F 55.4 °F 88% 29.96 in 10.0 mi NE 12.7 mph - N/A   Overcast
1:35 AM 59.0 °F 55.4 °F 88% 29.96 in 10.0 mi NNE 13.8 mph - N/A   Overcast
1:55 AM 59.0 °F 55.4 °F 88% 29.96 in 10.0 mi NNE 16.1 mph 21.9 mph N/A   Overcast
2:15 AM 66.2 °F 62.6 °F 88% 29.96 in 10.0 mi NNE 11.5 mph - N/A   Overcast
2:35 AM 69.8 °F 66.2 °F 88% 29.96 in 10.0 mi NNE 12.7 mph 19.6 mph N/A   Overcast
2:55 AM 66.2 °F 62.6 °F 88% 29.96 in 10.0 mi NNE 10.4 mph - N/A   Overcast
3:15 AM 64.4 °F 62.6 °F 94% 29.96 in 10.0 mi NNE 10.4 mph - N/A   Overcast
3:35 AM 60.8 °F 57.2 °F 88% 29.96 in 10.0 mi NNE 10.4 mph - N/A   Overcast
3:55 AM 57.2 °F 55.4 °F 94% 29.96 in 10.0 mi NNE 12.7 mph 19.6 mph N/A   Overcast
4:15 AM 57.2 °F 55.4 °F 94% 29.96 in 10.0 mi NNE 13.8 mph - N/A   Overcast
4:35 AM 57.2 °F 55.4 °F 94% 29.96 in 10.0 mi NNE 10.4 mph - N/A   Overcast
4:55 AM 57.2 °F 55.4 °F 94% 29.96 in 10.0 mi NNE 12.7 mph 18.4 mph N/A   Overcast
5:15 AM 59.0 °F 55.4 °F 88% 29.96 in 10.0 mi NNE 15.0 mph 21.9 mph N/A   Overcast
5:35 AM 57.2 °F 55.4 °F 94% 29.96 in 10.0 mi NNE 15.0 mph 21.9 mph N/A   Overcast
5:55 AM 57.2 °F 55.4 °F 94% 29.97 in 10.0 mi NNE 11.5 mph - N/A   Overcast
6:15 AM 57.2 °F 55.4 °F 94% 29.97 in 8.0 mi NNE 12.7 mph - N/A   Overcast
6:35 AM 57.2 °F 55.4 °F 94% 29.98 in 10.0 mi NE 9.2 mph - N/A   Overcast
6:55 AM 59.0 °F 55.4 °F 88% 29.97 in 10.0 mi NNE 17.3 mph 23.0 mph N/A   Overcast
7:15 AM 59.0 °F 55.4 °F 88% 29.98 in 10.0 mi NNE 18.4 mph 25.3 mph N/A   Overcast
7:35 AM 59.0 °F 55.4 °F 88% 29.98 in 9.0 mi NNE 13.8 mph - N/A   Overcast
7:55 AM 59.0 °F 55.4 °F 88% 29.99 in 10.0 mi NNE 12.7 mph 18.4 mph N/A   Overcast
8:15 AM 60.8 °F 55.4 °F 82% 29.98 in 10.0 mi NNE 19.6 mph - N/A   Overcast
8:35 AM 60.8 °F 55.4 °F 82% 29.98 in 10.0 mi NNE 18.4 mph - N/A   Overcast
8:55 AM 60.8 °F 55.4 °F 82% 29.99 in 10.0 mi NE 9.2 mph - N/A   Overcast
9:15 AM 60.8 °F 55.4 °F 82% 29.99 in 10.0 mi NNE 13.8 mph - N/A   Overcast
9:35 AM 60.8 °F 55.4 °F 82% 29.98 in 10.0 mi NNE 13.8 mph - N/A   Overcast
9:55 AM 60.8 °F 55.4 °F 82% 29.99 in 10.0 mi NNE 15.0 mph - N/A   Overcast
10:15 AM 60.8 °F 55.4 °F 82% 29.99 in 10.0 mi NNE 17.3 mph - N/A   Overcast
10:35 AM 62.6 °F 55.4 °F 77% 29.99 in 10.0 mi NNE 17.3 mph 23.0 mph N/A   Overcast
10:55 AM 62.6 °F 55.4 °F 77% 29.99 in 10.0 mi NNE 20.7 mph - N/A   Overcast
11:15 AM 64.4 °F 55.4 °F 73% 29.98 in 10.0 mi North 18.4 mph 24.2 mph N/A   Mostly Cloudy
11:35 AM 64.4 °F 55.4 °F 73% 29.99 in 10.0 mi NNE 23.0 mph 28.8 mph N/A   Mostly Cloudy
11:55 AM 64.4 °F 55.4 °F 73% 29.98 in 10.0 mi North 19.6 mph 33.4 mph N/A   Mostly Cloudy
12:15 PM 64.4 °F 55.4 °F 73% 29.98 in 10.0 mi North 20.7 mph 29.9 mph N/A   Partly Cloudy
12:35 PM 64.4 °F 55.4 °F 73% 29.98 in 10.0 mi North 23.0 mph 29.9 mph N/A   Clear
12:55 PM 64.4 °F 55.4 °F 73% 29.98 in 10.0 mi NNE 20.7 mph 31.1 mph N/A   Clear
1:15 PM 64.4 °F 55.4 °F 73% 29.97 in 10.0 mi NNE 24.2 mph 31.1 mph N/A   Clear
1:35 PM 64.4 °F 55.4 °F 73% 29.97 in 10.0 mi NNE 26.5 mph 33.4 mph N/A   Clear
1:55 PM 64.4 °F 55.4 °F 73% 29.97 in 10.0 mi North 26.5 mph 32.2 mph N/A   Clear
2:15 PM 64.4 °F 55.4 °F 73% 29.97 in 10.0 mi North 24.2 mph 32.2 mph N/A   Clear
2:35 PM 64.4 °F 55.4 °F 73% 29.97 in 10.0 mi North 26.5 mph 32.2 mph N/A   Clear
2:55 PM 64.4 °F 55.4 °F 73% 29.97 in 10.0 mi North 25.3 mph 35.7 mph N/A   Clear
3:15 PM 64.4 °F 55.4 °F 73% 29.97 in 10.0 mi North 25.3 mph 32.2 mph N/A   Clear
3:35 PM 64.4 °F 55.4 °F 73% 29.97 in 10.0 mi NNE 20.7 mph 29.9 mph N/A   Clear
3:55 PM 64.4 °F 55.4 °F 73% 29.97 in 10.0 mi NNE 21.9 mph 29.9 mph N/A   Clear
4:15 PM 64.4 °F 55.4 °F 73% 29.97 in 10.0 mi NNE 21.9 mph 29.9 mph N/A   Clear
4:35 PM 64.4 °F 55.4 °F 73% 29.96 in 10.0 mi NNE 23.0 mph 29.9 mph N/A   Clear
4:55 PM 64.4 °F 55.4 °F 73% 29.97 in 10.0 mi NNE 23.0 mph 31.1 mph N/A   Clear
5:15 PM 64.4 °F 55.4 °F 73% 29.96 in 10.0 mi NNE 21.9 mph 34.5 mph N/A   Clear
5:35 PM 64.4 °F 55.4 °F 73% 29.96 in 10.0 mi NNE 23.0 mph 31.1 mph N/A   Partly Cloudy
5:55 PM 64.4 °F 55.4 °F 73% 29.96 in 10.0 mi NNE 20.7 mph 31.1 mph N/A   Partly Cloudy
6:15 PM 64.4 °F 57.2 °F 77% 29.96 in 10.0 mi NNE 24.2 mph 31.1 mph N/A   Partly Cloudy
6:35 PM 64.4 °F 57.2 °F 77% 29.96 in 10.0 mi NNE 20.7 mph 29.9 mph N/A   Mostly Cloudy
6:55 PM 62.6 °F 57.2 °F 82% 29.97 in 10.0 mi NNE 21.9 mph 26.5 mph N/A   Mostly Cloudy
7:15 PM 62.6 °F 55.4 °F 77% 29.97 in 10.0 mi NNE 20.7 mph 27.6 mph N/A   Scattered Clouds
7:35 PM 62.6 °F 55.4 °F 77% 29.98 in 10.0 mi NNE 19.6 mph 23.0 mph N/A   Partly Cloudy
7:55 PM 60.8 °F 55.4 °F 82% 29.98 in 10.0 mi North 17.3 mph 23.0 mph N/A   Mostly Cloudy
8:15 PM 60.8 °F 55.4 °F 82% 29.98 in 10.0 mi North 15.0 mph 25.3 mph N/A   Mostly Cloudy
8:35 PM 64.4 °F 60.8 °F 88% 29.99 in 10.0 mi NNE 12.7 mph 21.9 mph N/A   Overcast
8:55 PM 64.4 °F 60.8 °F 88% 29.99 in 10.0 mi NNE 15.0 mph 19.6 mph N/A   Overcast
9:15 PM 66.2 °F 62.6 °F 88% 30.00 in 10.0 mi NNE 12.7 mph 19.6 mph N/A   Overcast
9:35 PM 66.2 °F 62.6 °F 88% 30.01 in 10.0 mi North 10.4 mph - N/A   Overcast
9:55 PM 66.2 °F 62.6 °F 88% 30.01 in 10.0 mi NNE 11.5 mph - N/A   Overcast
10:15 PM 66.2 °F 62.6 °F 88% 30.02 in 10.0 mi NNE 11.5 mph - N/A   Overcast
10:35 PM 64.4 °F 60.8 °F 88% 30.01 in 10.0 mi NNE 11.5 mph - N/A   Overcast
10:55 PM 66.2 °F 60.8 °F 83% 30.02 in 10.0 mi NNE 12.7 mph - N/A   Overcast
11:15 PM 64.4 °F 60.8 °F 88% 30.02 in 10.0 mi NNE 13.8 mph - N/A   Overcast
11:35 PM 64.4 °F 62.6 °F 94% 30.02 in 10.0 mi NNE 10.4 mph - N/A   Overcast
11:55 PM 64.4 °F 60.8 °F 88% 30.03 in 10.0 mi NNE 9.2 mph - N/A   Overcast